User: anonymous   Login
Location: Unspecified
(0.0000°N, 0.0000°E)
Time: 09:43:46
(UTC+00:00)
Language:

OBJECT M - Orbit

View from above orbital plane
View from above orbital plane
View from above satellite
View from above satellite

Ground track
Ground track

The orbit data is extracted from the following two-line orbital elements,

1 42836U 17042M   18018.85796519  .00000066  00000-0  12160-4 0  9991
2 42836  97.6080 286.8021 0012959 345.5507  14.5339 14.90988769 28092
Epoch (UTC): 18 January 2018 20:35:28
Eccentricity: 0.0012959
inclination: 97.6080°
perigee height: 586 km
apogee height: 604 km
right ascension of ascending node: 286.8021°
argument of perigee: 345.5507°
revolutions per day: 14.90988769
mean anomaly at epoch: 14.5339°
orbit number at epoch: 2809

The dashed part of the orbit path shows where the satellite is in the earth's shadow,  

DLR